Change the Weather History Date:

Sunday, October 23, 2011

  Actual Average Record
Temperature  
Mean Temperature 52 °F 49 °F  
Max Temperature 68 °F 60 °F 83 °F (1963)
Min Temperature 36 °F 39 °F 20 °F (1981)
Degree Days  
Heating Degree Days 13 16  
Month to date heating degree days 209 282  
Since 1 July heating degree days 375 413  
Cooling Degree Days 0 0  
Month to date cooling degree days 14 8  
Year to date cooling degree days 1019 819  
Growing Degree Days 1 (Base 50)    
Moisture  
Dew Point 41 °F    
Average Humidity 63    
Maximum Humidity 92    
Minimum Humidity 34    
Precipitation  
Precipitation 0.22 in 0.08 in 1.71 in (2010)
Month to date precipitation 1.49 1.98  
Year to date precipitation 32.86 30.99  
Snow  
Snow 0.00 in 0.00 in 5.00 in (1929)
Month to date snowfall 0.0 0.0  
Since 1 July snowfall 0.0 0.0  
Since 1 September snowfall 0.0 0.0  
Snow Depth -    
Sea Level Pressure  
Sea Level Pressure 29.94 in    
Wind  
Wind Speed 6 mph (SW)    
Max Wind Speed 22 mph    
Max Gust Speed 30 mph    
Visibility 9 miles    
Events Rain , Thunderstorm    
T = Trace of Precipitation, MM = Missing Value Source: NWS Daily Summary

Daily Weather History Graph

Daily Weather History Graph

Search for Another Location

Airport or City:

Trip Planner

Search our weather history database for the weather conditions in past years. The results will help you decide how hot, cold, wet, or windy it might be!

Date:

Astronomy

Oct. 23, 2011 Rise Set
Actual Time 7:18 AM CDT 6:02 PM CDT
Civil Twilight 6:49 AM CDT 6:31 PM CDT
Nautical Twilight 6:16 AM CDT 7:03 PM CDT
Astronomical Twilight 5:44 AM CDT 7:36 PM CDT
Moon 3:21 AM CDT (10/23) 3:56 PM CDT (10/23)
Length of Visible Light 11h 41m
Length of Day
10h 44m
Waning Crescent, 14% of the Moon is Illuminated
Oct 23
Waning Crescent
Oct 26
New
Nov 2
First Quarter
Nov 10
Full
Nov 18
Last Quarter

Hourly Weather History & Observations

Time (CDT) Temp. Windchill Dew Point Humidity Pressure Visibility Wind Dir Wind Speed Gust Speed Precip Events Conditions
12:54 AM 39.9 °F - 36.0 °F 86% 30.00 in 6.0 mi Calm Calm - N/A   Clear
1:54 AM 37.9 °F - 35.1 °F 89% 30.01 in 7.0 mi Calm Calm - N/A   Clear
2:54 AM 37.9 °F - 35.1 °F 89% 30.01 in 7.0 mi Calm Calm - N/A   Scattered Clouds
3:54 AM 37.9 °F 35.5 °F 35.1 °F 89% 30.01 in 8.0 mi SSE 3.5 mph - N/A   Mostly Cloudy
4:54 AM 39.0 °F - 36.0 °F 89% 30.01 in 7.0 mi Calm Calm - N/A   Mostly Cloudy
5:54 AM 37.9 °F - 35.1 °F 89% 30.01 in 7.0 mi Calm Calm - N/A   Mostly Cloudy
6:54 AM 37.0 °F - 34.0 °F 89% 30.01 in 8.0 mi Calm Calm - N/A   Scattered Clouds
7:54 AM 36.0 °F - 34.0 °F 93% 30.02 in 5.0 mi Calm Calm - N/A   Scattered Clouds
8:54 AM 41.0 °F 39.0 °F 37.9 °F 89% 30.02 in 9.0 mi South 3.5 mph - N/A   Partly Cloudy
9:54 AM 48.0 °F - 39.9 °F 74% 30.02 in 10.0 mi Calm Calm - N/A   Partly Cloudy
10:54 AM 57.9 °F - 41.0 °F 53% 30.00 in 10.0 mi Variable 3.5 mph - N/A   Partly Cloudy
11:54 AM 63.0 °F - 39.0 °F 41% 29.98 in 10.0 mi SW 5.8 mph - N/A   Mostly Cloudy
12:54 PM 64.9 °F - 37.0 °F 36% 29.96 in 10.0 mi WSW 10.4 mph - N/A   Mostly Cloudy
1:54 PM 66.0 °F - 37.9 °F 36% 29.93 in 10.0 mi SW 11.5 mph - N/A   Mostly Cloudy
2:54 PM 66.9 °F - 39.9 °F 37% 29.90 in 10.0 mi SW 13.8 mph - N/A   Scattered Clouds
3:54 PM 66.9 °F - 42.1 °F 40% 29.89 in 10.0 mi SW 12.7 mph - N/A   Mostly Cloudy
4:54 PM 66.9 °F - 43.0 °F 42% 29.88 in 10.0 mi SW 6.9 mph - N/A   Scattered Clouds
5:54 PM 64.0 °F - 42.1 °F 45% 29.88 in 10.0 mi SSW 9.2 mph - N/A   Scattered Clouds
6:54 PM 59.0 °F - 44.1 °F 58% 29.88 in 10.0 mi South 6.9 mph - 0.00 in   Mostly Cloudy
7:54 PM 57.9 °F - 44.1 °F 60% 29.87 in 10.0 mi South 9.2 mph - N/A   Mostly Cloudy
8:54 PM 59.0 °F - 44.1 °F 58% 29.85 in 10.0 mi SSW 12.7 mph - N/A   Mostly Cloudy
9:28 PM 57.2 °F - 44.6 °F 63% 29.83 in 10.0 mi SSW 8.1 mph - N/A Thunderstorm Thunderstorm
9:54 PM 55.9 °F - 48.0 °F 75% 29.91 in 6.0 mi NNW 15.0 mph 29.9 mph 0.01 in Rain , Thunderstorm Thunderstorms and Rain
10:01 PM 55.4 °F - 48.2 °F 77% 29.90 in 6.0 mi North 17.3 mph 24.2 mph 0.01 in Rain , Thunderstorm Thunderstorms and Rain
10:54 PM 54.0 °F - 50.0 °F 86% 29.91 in 5.0 mi SW 8.1 mph - 0.16 in Rain , Thunderstorm Thunderstorms and Rain
11:10 PM 55.4 °F - 50.0 °F 82% 29.87 in 10.0 mi SSW 9.2 mph - 0.05 in   Overcast
11:54 PM 53.6 °F - 50.0 °F 88% 29.89 in 10.0 mi Calm Calm - N/A   Overcast